Location: *
(34.6903°N, 135.5184°E)
Time: 02:03:15
(UTC+00:00)

ASTRO E2 - Pass Details

Date: 22 September 2019
Orbit: 511 x 517 km, 31.4° (Epoch: 14 October)

Event Time Altitude Azimuth Distance (km) Brightness Sun altitude
Exits shadow 18:45:12 35° 128° (SE) 827 3.9 -25.2°
Drops below altitude 10° 18:47:48 10° 106° (ESE) 1,724 6.1 -24.7°
Sets 18:50:04 0° 101° (ESE) 2,611 7.2 -24.3°
